User: anonymous   Login
Location: Unspecified
(0.0000°N, 0.0000°E)
Time: 07:00:31
(UTC+00:00)
Language:

deb r/b Ablestar - Orbit

View from above orbital plane
View from above orbital plane
View from above satellite
View from above satellite

Ground track
Ground track

The orbit data is extracted from the following two-line orbital elements,

1 00335U 61015DM  14302.04055813  .00001610  00000-0  85927-3 0  3277
2 00335 066.8424 165.8941 0035497 067.2506 081.2468 14.15497204725247
Epoch (UTC): 29 October 2014 00:58:24
Eccentricity: 0.0035497
inclination: 66.8424°
perigee height: 815 km
apogee height: 866 km
right ascension of ascending node: 165.8941°
argument of perigee: 67.2506°
revolutions per day: 14.15497204
mean anomaly at epoch: 81.2468°
orbit number at epoch: 72524

The dashed part of the orbit path shows where the satellite is in the earth's shadow,  

DLR